Time,TemperatureF,DewpointF,PressureIn,WindDirection,WindDirectionDegrees,WindSpeedMPH,WindSpeedGustMPH,Humidity,HourlyPrecipIn,Conditions,Clouds,dailyrainin,SoftwareType,DateUTC
2013-05-11 00:01:00,61.1,56.0,29.25,ENE,67,0.0,6.0,84,0.00,,,0.00,Rainwise IP-100,2013-05-11 04:01:00,
2013-05-11 00:06:00,61.1,56.0,29.25,ENE,67,0.0,1.0,84,0.00,,,0.00,Rainwise IP-100,2013-05-11 04:06:00,
2013-05-11 00:11:00,61.1,56.0,29.25,West,270,0.0,3.0,84,0.00,,,0.00,Rainwise IP-100,2013-05-11 04:11:00,
2013-05-11 00:16:00,61.3,56.5,29.25,WSW,247,2.0,9.0,83,0.00,,,0.00,Rainwise IP-100,2013-05-11 04:16:00,
2013-05-11 00:21:00,61.8,56.5,29.25,SE,135,0.0,6.0,82,0.00,,,0.00,Rainwise IP-100,2013-05-11 04:21:00,
2013-05-11 00:26:00,61.9,56.0,29.25,SE,135,6.0,7.0,80,0.00,,,0.00,Rainwise IP-100,2013-05-11 04:26:00,
2013-05-11 00:31:00,62.3,56.5,29.25,South,180,4.0,6.0,80,0.00,,,0.00,Rainwise IP-100,2013-05-11 04:31:00,
2013-05-11 00:37:00,62.4,56.0,29.24,South,180,0.0,5.0,79,0.00,,,0.00,Rainwise IP-100,2013-05-11 04:37:00,
2013-05-11 00:42:00,62.1,56.0,29.24,SSE,157,0.0,7.0,80,0.00,,,0.00,Rainwise IP-100,2013-05-11 04:42:00,
2013-05-11 00:47:00,62.3,56.0,29.24,SSE,157,0.0,9.0,79,0.00,,,0.00,Rainwise IP-100,2013-05-11 04:47:00,
2013-05-11 00:52:00,62.2,55.0,29.24,SSE,157,2.0,4.0,79,0.00,,,0.00,Rainwise IP-100,2013-05-11 04:52:00,
2013-05-11 00:57:00,62.1,56.0,29.24,SW,225,2.0,5.0,80,0.00,,,0.00,Rainwise IP-100,2013-05-11 04:57:00,
2013-05-11 01:02:00,61.9,56.0,29.24,SE,135,2.0,4.0,80,0.00,,,0.00,Rainwise IP-100,2013-05-11 05:02:00,
2013-05-11 01:07:00,61.7,55.0,29.23,WSW,247,1.0,2.0,80,0.00,,,0.00,Rainwise IP-100,2013-05-11 05:07:00,
2013-05-11 01:13:00,61.6,55.0,29.23,SE,135,0.0,3.0,80,0.00,,,0.00,Rainwise IP-100,2013-05-11 05:13:00,
2013-05-11 01:18:00,61.4,56.0,29.23,SE,135,0.0,2.0,81,0.00,,,0.00,Rainwise IP-100,2013-05-11 05:18:00,
2013-05-11 01:23:00,61.2,55.0,29.23,SE,135,0.0,2.0,81,0.00,,,0.00,Rainwise IP-100,2013-05-11 05:23:00,
2013-05-11 01:28:00,61.0,55.0,29.23,ESE,112,2.0,3.0,82,0.00,,,0.00,Rainwise IP-100,2013-05-11 05:28:00,
2013-05-11 01:33:00,60.9,55.0,29.23,SSE,157,0.0,3.0,82,0.00,,,0.00,Rainwise IP-100,2013-05-11 05:33:00,
2013-05-11 01:38:00,60.8,55.0,29.23,South,180,1.0,6.0,82,0.00,,,0.00,Rainwise IP-100,2013-05-11 05:38:00,
2013-05-11 01:43:00,60.8,56.0,29.22,WSW,247,2.0,4.0,84,0.00,,,0.00,Rainwise IP-100,2013-05-11 05:43:00,
2013-05-11 01:48:00,60.8,56.0,29.22,SE,135,0.0,6.0,83,0.00,,,0.00,Rainwise IP-100,2013-05-11 05:48:00,
2013-05-11 01:54:00,60.6,55.0,29.22,SE,135,0.0,0.0,83,0.00,,,0.00,Rainwise IP-100,2013-05-11 05:54:00,
2013-05-11 01:59:00,60.4,56.0,29.21,SE,135,0.0,0.0,84,0.00,,,0.00,Rainwise IP-100,2013-05-11 05:59:00,
2013-05-11 02:04:00,60.4,55.0,29.21,SSE,157,4.0,4.0,83,0.00,,,0.00,Rainwise IP-100,2013-05-11 06:04:00,
2013-05-11 02:09:00,60.3,56.0,29.21,SSW,202,0.0,4.0,84,0.00,,,0.00,Rainwise IP-100,2013-05-11 06:09:00,
2013-05-11 02:14:00,60.2,55.0,29.21,SSE,157,0.0,3.0,84,0.00,,,0.00,Rainwise IP-100,2013-05-11 06:14:00,
2013-05-11 02:19:00,60.3,56.0,29.21,SSE,157,0.0,6.0,84,0.00,,,0.00,Rainwise IP-100,2013-05-11 06:19:00,
2013-05-11 02:24:00,60.1,55.0,29.21,South,180,1.0,3.0,84,0.00,,,0.00,Rainwise IP-100,2013-05-11 06:24:00,
2013-05-11 02:30:00,59.9,55.0,29.21,West,270,3.0,6.0,85,0.00,,,0.00,Rainwise IP-100,2013-05-11 06:30:00,
2013-05-11 02:35:00,59.9,55.0,29.20,SSE,157,2.0,4.0,85,0.00,,,0.00,Rainwise IP-100,2013-05-11 06:35:00,
2013-05-11 02:40:00,59.8,55.0,29.20,East,90,0.0,4.0,85,0.00,,,0.00,Rainwise IP-100,2013-05-11 06:40:00,
2013-05-11 02:45:00,59.7,55.0,29.20,SW,225,1.0,4.0,86,0.00,,,0.00,Rainwise IP-100,2013-05-11 06:45:00,
2013-05-11 02:50:00,59.5,55.0,29.19,West,270,1.0,5.0,86,0.00,,,0.00,Rainwise IP-100,2013-05-11 06:50:00,
2013-05-11 02:55:00,59.4,55.0,29.19,SSE,157,4.0,7.0,87,0.00,,,0.00,Rainwise IP-100,2013-05-11 06:55:00,
2013-05-11 03:00:00,59.6,55.0,29.19,SW,225,1.0,7.0,87,0.00,,,0.00,Rainwise IP-100,2013-05-11 07:00:00,
2013-05-11 03:05:00,59.4,55.0,29.19,SW,225,2.0,5.0,86,0.00,,,0.00,Rainwise IP-100,2013-05-11 07:05:00,
2013-05-11 03:06:00,59.4,55.0,29.19,SW,225,0.0,4.0,86,0.00,,,0.00,Rainwise IP-100,2013-05-11 07:06:00,
2013-05-11 03:11:00,59.0,54.5,29.19,SE,135,1.0,5.0,86,0.00,,,0.00,Rainwise IP-100,2013-05-11 07:11:00,
2013-05-11 03:16:00,59.1,55.0,29.18,SW,225,3.0,6.0,87,0.00,,,0.00,Rainwise IP-100,2013-05-11 07:16:00,
2013-05-11 03:22:00,58.9,55.0,29.18,SSE,157,0.0,4.0,87,0.00,,,0.00,Rainwise IP-100,2013-05-11 07:22:00,
2013-05-11 03:27:00,58.8,55.0,29.18,SW,225,1.0,4.0,87,0.00,,,0.00,Rainwise IP-100,2013-05-11 07:27:00,
2013-05-11 03:32:00,58.8,55.0,29.18,SW,225,2.0,6.0,88,0.00,,,0.00,Rainwise IP-100,2013-05-11 07:32:00,
2013-05-11 03:37:00,58.7,55.0,29.17,NNW,337,0.0,3.0,87,0.00,,,0.00,Rainwise IP-100,2013-05-11 07:37:00,
2013-05-11 03:42:00,58.7,55.0,29.17,SSW,202,0.0,6.0,88,0.00,,,0.00,Rainwise IP-100,2013-05-11 07:42:00,
2013-05-11 03:47:00,58.5,56.0,29.17,WSW,247,1.0,6.0,89,0.00,,,0.00,Rainwise IP-100,2013-05-11 07:47:00,
2013-05-11 03:52:00,58.4,54.5,29.17,SE,135,0.0,2.0,88,0.00,,,0.00,Rainwise IP-100,2013-05-11 07:52:00,
2013-05-11 03:58:00,58.5,56.0,29.17,South,180,1.0,6.0,89,0.00,,,0.00,Rainwise IP-100,2013-05-11 07:58:00,
2013-05-11 04:03:00,58.6,56.0,29.17,SSE,157,3.0,5.0,89,0.00,,,0.00,Rainwise IP-100,2013-05-11 08:03:00,
2013-05-11 04:08:00,58.6,56.0,29.16,SSE,157,1.0,6.0,89,0.00,,,0.00,Rainwise IP-100,2013-05-11 08:08:00,
2013-05-11 04:13:00,58.6,56.0,29.16,West,270,3.0,6.0,89,0.00,,,0.00,Rainwise IP-100,2013-05-11 08:13:00,
2013-05-11 04:18:00,58.6,56.0,29.16,SSE,157,6.0,6.0,89,0.00,,,0.00,Rainwise IP-100,2013-05-11 08:18:00,
2013-05-11 04:23:00,58.6,56.0,29.16,SE,135,0.0,6.0,89,0.00,,,0.00,Rainwise IP-100,2013-05-11 08:23:00,
2013-05-11 04:28:00,58.5,56.0,29.16,WSW,247,0.0,3.0,89,0.00,,,0.00,Rainwise IP-100,2013-05-11 08:28:00,
2013-05-11 04:33:00,58.4,54.5,29.16,SSE,157,0.0,4.0,88,0.00,,,0.00,Rainwise IP-100,2013-05-11 08:33:00,
2013-05-11 04:39:00,58.4,54.5,29.16,SSE,157,0.0,5.0,88,0.00,,,0.00,Rainwise IP-100,2013-05-11 08:39:00,
2013-05-11 04:44:00,58.4,54.5,29.16,WSW,247,1.0,6.0,88,0.00,,,0.00,Rainwise IP-100,2013-05-11 08:44:00,
2013-05-11 04:49:00,58.1,55.0,29.16,North,360,1.0,6.0,89,0.00,,,0.00,Rainwise IP-100,2013-05-11 08:49:00,
2013-05-11 04:54:00,57.9,55.0,29.16,SE,135,0.0,6.0,89,0.00,,,0.00,Rainwise IP-100,2013-05-11 08:54:00,
2013-05-11 04:59:00,57.6,54.5,29.15,SW,225,1.0,4.0,90,0.06,,,0.01,Rainwise IP-100,2013-05-11 08:59:00,
2013-05-11 05:04:00,57.3,55.0,29.16,WSW,247,0.0,5.0,91,0.06,,,0.01,Rainwise IP-100,2013-05-11 09:04:00,
2013-05-11 05:09:00,57.3,55.0,29.15,WNW,292,3.0,6.0,92,0.00,,,0.01,Rainwise IP-100,2013-05-11 09:09:00,
2013-05-11 05:15:00,57.1,54.5,29.16,South,180,0.0,6.0,91,0.00,,,0.02,Rainwise IP-100,2013-05-11 09:15:00,
2013-05-11 05:20:00,57.0,54.5,29.15,South,180,0.0,2.0,92,0.06,,,0.02,Rainwise IP-100,2013-05-11 09:20:00,
2013-05-11 05:25:00,56.9,54.5,29.15,SE,135,0.0,4.0,92,0.00,,,0.02,Rainwise IP-100,2013-05-11 09:25:00,
2013-05-11 05:30:00,56.7,54.5,29.15,SE,135,0.0,0.0,93,0.00,,,0.02,Rainwise IP-100,2013-05-11 09:30:00,
2013-05-11 05:35:00,56.6,54.5,29.15,SE,135,0.0,0.0,93,0.06,,,0.03,Rainwise IP-100,2013-05-11 09:35:00,
2013-05-11 05:40:00,56.6,54.5,29.15,SSW,202,0.0,4.0,93,0.06,,,0.03,Rainwise IP-100,2013-05-11 09:40:00,
2013-05-11 05:45:00,56.5,54.5,29.15,SW,225,0.0,6.0,94,0.00,,,0.03,Rainwise IP-100,2013-05-11 09:45:00,
2013-05-11 05:50:00,56.4,54.5,29.15,SW,225,0.0,2.0,94,0.06,,,0.04,Rainwise IP-100,2013-05-11 09:50:00,
2013-05-11 05:56:00,56.3,54.5,29.15,SW,225,0.0,0.0,94,0.06,,,0.04,Rainwise IP-100,2013-05-11 09:56:00,
2013-05-11 06:01:00,56.4,54.5,29.15,SW,225,0.0,2.0,94,0.06,,,0.05,Rainwise IP-100,2013-05-11 10:01:00,
2013-05-11 06:06:00,56.4,54.5,29.15,ESE,112,0.0,5.0,94,0.12,,,0.06,Rainwise IP-100,2013-05-11 10:06:00,
2013-05-11 06:11:00,56.4,55.0,29.15,WSW,247,0.0,7.0,95,0.06,,,0.06,Rainwise IP-100,2013-05-11 10:11:00,
2013-05-11 06:16:00,56.4,54.5,29.15,East,90,0.0,10.0,94,0.00,,,0.06,Rainwise IP-100,2013-05-11 10:16:00,
2013-05-11 06:21:00,56.4,54.5,29.15,South,180,0.0,6.0,94,0.06,,,0.07,Rainwise IP-100,2013-05-11 10:21:00,
2013-05-11 06:26:00,56.4,55.0,29.15,NNW,337,0.0,7.0,95,0.06,,,0.07,Rainwise IP-100,2013-05-11 10:26:00,
2013-05-11 06:32:00,56.4,55.0,29.15,East,90,0.0,7.0,96,0.00,,,0.08,Rainwise IP-100,2013-05-11 10:32:00,
2013-05-11 06:37:00,56.5,55.0,29.15,SW,225,3.0,6.0,96,0.06,,,0.08,Rainwise IP-100,2013-05-11 10:37:00,
2013-05-11 06:42:00,56.6,56.0,29.15,WSW,247,6.0,10.0,97,0.00,,,0.08,Rainwise IP-100,2013-05-11 10:42:00,
2013-05-11 06:47:00,56.9,56.0,29.15,SSE,157,1.0,7.0,96,0.00,,,0.08,Rainwise IP-100,2013-05-11 10:47:00,
2013-05-11 06:52:00,56.9,56.0,29.15,SW,225,4.0,7.0,96,0.00,,,0.08,Rainwise IP-100,2013-05-11 10:52:00,
2013-05-11 06:57:00,57.0,56.0,29.14,South,180,2.0,8.0,96,0.00,,,0.08,Rainwise IP-100,2013-05-11 10:57:00,
2013-05-11 07:02:00,57.1,56.0,29.14,SW,225,0.0,6.0,96,0.00,,,0.08,Rainwise IP-100,2013-05-11 11:02:00,
2013-05-11 07:07:00,56.9,56.5,29.14,SW,225,4.0,8.0,98,0.00,,,0.08,Rainwise IP-100,2013-05-11 11:07:00,
2013-05-11 07:13:00,57.0,56.5,29.14,SE,135,0.0,7.0,98,0.00,,,0.08,Rainwise IP-100,2013-05-11 11:13:00,
2013-05-11 07:18:00,57.1,56.5,29.14,West,270,6.0,6.0,98,0.00,,,0.08,Rainwise IP-100,2013-05-11 11:18:00,
2013-05-11 07:23:00,57.1,56.5,29.14,SW,225,6.0,10.0,98,0.00,,,0.08,Rainwise IP-100,2013-05-11 11:23:00,
2013-05-11 07:28:00,57.1,56.5,29.14,SW,225,8.0,9.0,98,0.00,,,0.08,Rainwise IP-100,2013-05-11 11:28:00,
2013-05-11 07:33:00,57.2,56.5,29.14,WSW,247,4.0,11.0,98,0.00,,,0.08,Rainwise IP-100,2013-05-11 11:33:00,
2013-05-11 07:38:00,57.3,57.0,29.13,WSW,247,6.0,6.0,98,0.00,,,0.08,Rainwise IP-100,2013-05-11 11:38:00,
2013-05-11 07:43:00,57.3,57.0,29.13,SSE,157,5.0,9.0,97,0.00,,,0.08,Rainwise IP-100,2013-05-11 11:43:00,
2013-05-11 07:49:00,57.5,57.0,29.13,WSW,247,3.0,9.0,97,0.00,,,0.08,Rainwise IP-100,2013-05-11 11:49:00,
2013-05-11 07:54:00,57.6,57.0,29.13,SSE,157,3.0,9.0,98,0.00,,,0.08,Rainwise IP-100,2013-05-11 11:54:00,
2013-05-11 07:59:00,57.7,57.0,29.13,SE,135,3.0,7.0,97,0.00,,,0.08,Rainwise IP-100,2013-05-11 11:59:00,
2013-05-11 08:04:00,57.7,57.0,29.13,NNW,337,5.0,9.0,97,0.00,,,0.08,Rainwise IP-100,2013-05-11 12:04:00,
2013-05-11 08:09:00,57.8,57.5,29.13,SE,135,1.0,5.0,97,0.00,,,0.08,Rainwise IP-100,2013-05-11 12:09:00,
2013-05-11 08:14:00,58.0,57.5,29.13,SSE,157,4.0,6.0,97,0.00,,,0.08,Rainwise IP-100,2013-05-11 12:14:00,
2013-05-11 08:19:00,58.2,57.5,29.13,SSE,157,6.0,7.0,97,0.00,,,0.08,Rainwise IP-100,2013-05-11 12:19:00,
2013-05-11 08:24:00,58.3,57.5,29.13,SSE,157,6.0,8.0,97,0.00,,,0.08,Rainwise IP-100,2013-05-11 12:24:00,
2013-05-11 08:30:00,58.7,58.0,29.13,ENE,67,1.0,7.0,97,0.00,,,0.08,Rainwise IP-100,2013-05-11 12:30:00,
2013-05-11 08:35:00,58.9,58.0,29.13,SE,135,6.0,9.0,97,0.00,,,0.08,Rainwise IP-100,2013-05-11 12:35:00,
2013-05-11 08:40:00,59.3,58.0,29.13,SE,135,2.0,9.0,97,0.00,,,0.08,Rainwise IP-100,2013-05-11 12:40:00,
2013-05-11 08:45:00,59.6,58.0,29.13,South,180,5.0,7.0,97,0.00,,,0.08,Rainwise IP-100,2013-05-11 12:45:00,
2013-05-11 08:50:00,59.7,58.0,29.13,SE,135,4.0,8.0,97,0.00,,,0.08,Rainwise IP-100,2013-05-11 12:50:00,
2013-05-11 08:55:00,60.1,59.0,29.13,South,180,2.0,8.0,96,0.00,,,0.08,Rainwise IP-100,2013-05-11 12:55:00,
2013-05-11 09:00:00,60.3,59.0,29.13,SSW,202,3.0,11.0,95,0.00,,,0.08,Rainwise IP-100,2013-05-11 13:00:00,
2013-05-11 09:06:00,60.5,59.0,29.13,South,180,2.0,7.0,95,0.00,,,0.08,Rainwise IP-100,2013-05-11 13:06:00,
2013-05-11 09:11:00,60.9,59.5,29.13,South,180,4.0,7.0,95,0.00,,,0.08,Rainwise IP-100,2013-05-11 13:11:00,
2013-05-11 09:16:00,61.7,60.0,29.13,East,90,4.0,8.0,94,0.00,,,0.08,Rainwise IP-100,2013-05-11 13:16:00,
2013-05-11 09:21:00,62.1,60.5,29.13,West,270,3.0,10.0,94,0.00,,,0.08,Rainwise IP-100,2013-05-11 13:21:00,
2013-05-11 09:26:00,62.2,60.0,29.13,East,90,2.0,7.0,93,0.00,,,0.08,Rainwise IP-100,2013-05-11 13:26:00,
2013-05-11 09:31:00,62.7,60.0,29.13,South,180,6.0,9.0,92,0.00,,,0.08,Rainwise IP-100,2013-05-11 13:31:00,
2013-05-11 09:36:00,62.6,60.0,29.13,WSW,247,5.0,8.0,92,0.00,,,0.08,Rainwise IP-100,2013-05-11 13:36:00,
2013-05-11 09:41:00,62.1,59.5,29.13,SE,135,3.0,7.0,91,0.00,,,0.08,Rainwise IP-100,2013-05-11 13:41:00,
2013-05-11 09:47:00,61.9,60.0,29.13,South,180,2.0,5.0,92,0.00,,,0.08,Rainwise IP-100,2013-05-11 13:47:00,
2013-05-11 09:52:00,61.3,59.5,29.13,WSW,247,2.0,9.0,92,0.00,,,0.08,Rainwise IP-100,2013-05-11 13:52:00,
2013-05-11 09:57:00,61.1,59.0,29.13,South,180,1.0,10.0,93,0.00,,,0.08,Rainwise IP-100,2013-05-11 13:57:00,
2013-05-11 10:02:00,60.9,59.0,29.13,SSW,202,1.0,7.0,93,0.00,,,0.08,Rainwise IP-100,2013-05-11 14:02:00,
2013-05-11 10:07:00,61.1,59.0,29.12,WNW,292,6.0,14.0,93,0.00,,,0.08,Rainwise IP-100,2013-05-11 14:07:00,
2013-05-11 10:12:00,60.9,59.0,29.12,South,180,2.0,9.0,92,0.00,,,0.08,Rainwise IP-100,2013-05-11 14:12:00,
2013-05-11 10:17:00,60.9,59.0,29.12,West,270,0.0,10.0,93,0.00,,,0.08,Rainwise IP-100,2013-05-11 14:17:00,
2013-05-11 10:23:00,61.2,59.0,29.12,SSE,157,5.0,6.0,93,0.00,,,0.08,Rainwise IP-100,2013-05-11 14:23:00,
2013-05-11 10:28:00,60.9,59.5,29.12,NNW,337,1.0,9.0,94,0.00,,,0.08,Rainwise IP-100,2013-05-11 14:28:00,
2013-05-11 10:33:00,60.9,59.5,29.12,SE,135,3.0,6.0,94,0.00,,,0.08,Rainwise IP-100,2013-05-11 14:33:00,
2013-05-11 10:38:00,61.1,59.5,29.11,ENE,67,1.0,8.0,94,0.00,,,0.08,Rainwise IP-100,2013-05-11 14:38:00,
2013-05-11 10:43:00,61.6,60.0,29.12,WSW,247,0.0,12.0,94,0.00,,,0.08,Rainwise IP-100,2013-05-11 14:43:00,
2013-05-11 10:48:00,62.1,60.0,29.12,West,270,3.0,9.0,92,0.00,,,0.08,Rainwise IP-100,2013-05-11 14:48:00,
2013-05-11 10:53:00,62.4,60.0,29.12,SW,225,6.0,9.0,92,0.00,,,0.08,Rainwise IP-100,2013-05-11 14:53:00,
2013-05-11 10:56:00,62.5,60.0,29.12,SSE,157,4.0,9.0,92,0.00,,,0.08,Rainwise IP-100,2013-05-11 14:56:00,
2013-05-11 11:01:00,62.5,60.0,29.12,SW,225,6.0,10.0,92,0.00,,,0.08,Rainwise IP-100,2013-05-11 15:01:00,
2013-05-11 11:06:00,62.3,60.0,29.12,SSW,202,3.0,10.0,92,0.00,,,0.08,Rainwise IP-100,2013-05-11 15:06:00,
2013-05-11 11:11:00,62.1,60.0,29.12,WSW,247,6.0,11.0,92,0.00,,,0.08,Rainwise IP-100,2013-05-11 15:11:00,
2013-05-11 11:16:00,61.9,60.0,29.12,SSE,157,4.0,8.0,92,0.00,,,0.08,Rainwise IP-100,2013-05-11 15:16:00,
2013-05-11 11:21:00,61.7,59.5,29.12,South,180,5.0,8.0,92,0.00,,,0.08,Rainwise IP-100,2013-05-11 15:21:00,
2013-05-11 11:26:00,61.3,59.5,29.12,SW,225,4.0,9.0,93,0.00,,,0.08,Rainwise IP-100,2013-05-11 15:26:00,
2013-05-11 11:32:00,61.2,59.5,29.12,WSW,247,1.0,6.0,94,0.00,,,0.08,Rainwise IP-100,2013-05-11 15:32:00,
2013-05-11 11:37:00,61.2,59.0,29.12,SSE,157,6.0,7.0,93,0.00,,,0.08,Rainwise IP-100,2013-05-11 15:37:00,
2013-05-11 11:42:00,61.0,59.5,29.12,SSE,157,0.0,7.0,94,0.00,,,0.08,Rainwise IP-100,2013-05-11 15:42:00,
2013-05-11 11:47:00,61.0,59.5,29.12,WSW,247,2.0,4.0,94,0.00,,,0.08,Rainwise IP-100,2013-05-11 15:47:00,
2013-05-11 11:52:00,60.9,59.5,29.12,South,180,7.0,7.0,94,0.00,,,0.08,Rainwise IP-100,2013-05-11 15:52:00,
2013-05-11 11:57:00,60.9,59.5,29.12,South,180,6.0,8.0,94,0.00,,,0.08,Rainwise IP-100,2013-05-11 15:57:00,
2013-05-11 12:02:00,60.9,59.5,29.11,ESE,112,1.0,6.0,94,0.00,,,0.08,Rainwise IP-100,2013-05-11 16:02:00,
2013-05-11 12:08:00,60.9,59.5,29.11,South,180,6.0,6.0,94,0.00,,,0.08,Rainwise IP-100,2013-05-11 16:08:00,
2013-05-11 12:13:00,60.8,59.5,29.11,SSE,157,4.0,9.0,94,0.00,,,0.08,Rainwise IP-100,2013-05-11 16:13:00,
2013-05-11 12:18:00,60.7,59.0,29.11,SW,225,6.0,7.0,94,0.00,,,0.08,Rainwise IP-100,2013-05-11 16:18:00,
2013-05-11 12:23:00,60.8,59.5,29.11,SSE,157,1.0,8.0,95,0.00,,,0.08,Rainwise IP-100,2013-05-11 16:23:00,
2013-05-11 12:28:00,60.9,59.5,29.10,SW,225,2.0,7.0,95,0.00,,,0.08,Rainwise IP-100,2013-05-11 16:28:00,
2013-05-11 12:33:00,61.0,59.5,29.10,SSE,157,4.0,10.0,95,0.00,,,0.08,Rainwise IP-100,2013-05-11 16:33:00,
2013-05-11 12:38:00,61.1,59.5,29.10,SW,225,0.0,7.0,95,0.00,,,0.08,Rainwise IP-100,2013-05-11 16:38:00,
2013-05-11 12:43:00,61.4,60.0,29.10,East,90,1.0,8.0,94,0.00,,,0.08,Rainwise IP-100,2013-05-11 16:43:00,
2013-05-11 12:49:00,61.4,60.0,29.10,SE,135,2.0,9.0,94,0.00,,,0.08,Rainwise IP-100,2013-05-11 16:49:00,
2013-05-11 12:54:00,61.5,60.0,29.10,ESE,112,6.0,7.0,94,0.00,,,0.08,Rainwise IP-100,2013-05-11 16:54:00,
2013-05-11 12:59:00,61.5,60.0,29.10,SSE,157,7.0,11.0,94,0.00,,,0.08,Rainwise IP-100,2013-05-11 16:59:00,
2013-05-11 13:04:00,61.3,60.0,29.10,NNE,22,2.0,8.0,95,0.00,,,0.08,Rainwise IP-100,2013-05-11 17:04:00,
2013-05-11 13:09:00,61.4,60.0,29.10,SSE,157,6.0,9.0,95,0.06,,,0.09,Rainwise IP-100,2013-05-11 17:09:00,
2013-05-11 13:14:00,61.5,60.0,29.09,SSE,157,0.0,8.0,95,0.06,,,0.09,Rainwise IP-100,2013-05-11 17:14:00,
2013-05-11 13:19:00,61.7,60.0,29.09,SSW,202,4.0,8.0,95,0.06,,,0.10,Rainwise IP-100,2013-05-11 17:19:00,
2013-05-11 13:25:00,61.7,60.0,29.09,SE,135,0.0,8.0,95,0.06,,,0.10,Rainwise IP-100,2013-05-11 17:25:00,
2013-05-11 13:30:00,61.9,61.0,29.09,SW,225,5.0,9.0,96,0.06,,,0.11,Rainwise IP-100,2013-05-11 17:30:00,
2013-05-11 13:35:00,62.1,60.5,29.09,SE,135,2.0,9.0,95,0.06,,,0.11,Rainwise IP-100,2013-05-11 17:35:00,
2013-05-11 13:40:00,62.3,61.0,29.09,SE,135,0.0,11.0,95,0.00,,,0.11,Rainwise IP-100,2013-05-11 17:40:00,
2013-05-11 13:45:00,62.6,61.0,29.09,SSE,157,1.0,8.0,95,0.00,,,0.11,Rainwise IP-100,2013-05-11 17:45:00,
2013-05-11 13:50:00,63.1,61.5,29.09,WSW,247,3.0,6.0,95,0.00,,,0.11,Rainwise IP-100,2013-05-11 17:50:00,
2013-05-11 13:55:00,63.7,62.5,29.09,SSE,157,6.0,7.0,96,0.06,,,0.12,Rainwise IP-100,2013-05-11 17:55:00,
2013-05-11 14:00:00,63.9,63.0,29.09,South,180,3.0,7.0,96,0.06,,,0.12,Rainwise IP-100,2013-05-11 18:00:00,
2013-05-11 14:06:00,63.8,62.5,29.09,SW,225,4.0,9.0,95,0.00,,,0.12,Rainwise IP-100,2013-05-11 18:06:00,
2013-05-11 14:11:00,63.9,62.5,29.09,West,270,6.0,9.0,95,0.00,,,0.12,Rainwise IP-100,2013-05-11 18:11:00,
2013-05-11 14:16:00,64.0,62.5,29.09,SE,135,6.0,10.0,95,0.00,,,0.12,Rainwise IP-100,2013-05-11 18:16:00,
2013-05-11 14:21:00,63.9,62.0,29.09,WNW,292,5.0,9.0,94,0.00,,,0.12,Rainwise IP-100,2013-05-11 18:21:00,
2013-05-11 14:26:00,64.3,62.5,29.08,NNE,22,3.0,6.0,94,0.00,,,0.12,Rainwise IP-100,2013-05-11 18:26:00,
2013-05-11 14:31:00,64.4,62.5,29.08,WSW,247,4.0,9.0,94,0.00,,,0.12,Rainwise IP-100,2013-05-11 18:31:00,
2013-05-11 14:36:00,64.4,62.5,29.08,South,180,4.0,9.0,94,0.00,,,0.12,Rainwise IP-100,2013-05-11 18:36:00,
2013-05-11 14:42:00,64.2,62.0,29.08,SSE,157,3.0,7.0,93,0.06,,,0.13,Rainwise IP-100,2013-05-11 18:42:00,
2013-05-11 14:47:00,64.0,62.5,29.07,SSW,202,4.0,9.0,95,0.06,,,0.13,Rainwise IP-100,2013-05-11 18:47:00,
2013-05-11 14:52:00,64.3,63.0,29.07,SSW,202,3.0,7.0,95,0.00,,,0.13,Rainwise IP-100,2013-05-11 18:52:00,
2013-05-11 14:57:00,64.3,63.0,29.07,WSW,247,0.0,6.0,95,0.06,,,0.14,Rainwise IP-100,2013-05-11 18:57:00,
2013-05-11 15:02:00,64.3,63.0,29.07,SSE,157,2.0,7.0,95,0.06,,,0.14,Rainwise IP-100,2013-05-11 19:02:00,
2013-05-11 15:07:00,64.6,63.0,29.07,WSW,247,7.0,7.0,95,0.00,,,0.14,Rainwise IP-100,2013-05-11 19:07:00,
2013-05-11 15:12:00,64.6,63.0,29.07,SSW,202,2.0,8.0,95,0.00,,,0.14,Rainwise IP-100,2013-05-11 19:12:00,
2013-05-11 15:18:00,64.6,63.0,29.07,WSW,247,4.0,9.0,95,0.00,,,0.14,Rainwise IP-100,2013-05-11 19:18:00,
2013-05-11 15:23:00,64.4,63.0,29.07,South,180,8.0,8.0,95,0.00,,,0.14,Rainwise IP-100,2013-05-11 19:23:00,
2013-05-11 15:28:00,64.2,62.5,29.07,ENE,67,2.0,10.0,95,0.00,,,0.14,Rainwise IP-100,2013-05-11 19:28:00,
2013-05-11 15:33:00,63.9,62.5,29.07,SE,135,5.0,7.0,95,0.00,,,0.14,Rainwise IP-100,2013-05-11 19:33:00,
2013-05-11 15:38:00,63.8,62.5,29.06,SSE,157,3.0,6.0,95,0.00,,,0.14,Rainwise IP-100,2013-05-11 19:38:00,
2013-05-11 15:43:00,63.6,62.0,29.06,SE,135,0.0,6.0,95,0.06,,,0.15,Rainwise IP-100,2013-05-11 19:43:00,
2013-05-11 15:48:00,63.3,61.5,29.06,SW,225,0.0,6.0,94,0.06,,,0.15,Rainwise IP-100,2013-05-11 19:48:00,
2013-05-11 15:53:00,63.2,61.5,29.06,SSE,157,0.0,7.0,94,0.06,,,0.16,Rainwise IP-100,2013-05-11 19:53:00,
2013-05-11 15:59:00,63.1,61.5,29.07,WSW,247,2.0,5.0,95,0.12,,,0.18,Rainwise IP-100,2013-05-11 19:59:00,
2013-05-11 16:01:00,63.1,61.5,29.07,NE,45,1.0,5.0,95,0.18,,,0.18,Rainwise IP-100,2013-05-11 20:01:00,
2013-05-11 16:06:00,62.9,61.5,29.07,WSW,247,0.0,5.0,95,0.18,,,0.19,Rainwise IP-100,2013-05-11 20:06:00,
2013-05-11 16:11:00,62.8,61.5,29.07,SSE,157,3.0,6.0,95,0.12,,,0.20,Rainwise IP-100,2013-05-11 20:11:00,
2013-05-11 16:16:00,62.7,61.0,29.07,South,180,6.0,6.0,95,0.12,,,0.21,Rainwise IP-100,2013-05-11 20:16:00,
2013-05-11 16:21:00,62.6,61.0,29.07,SE,135,3.0,8.0,95,0.12,,,0.22,Rainwise IP-100,2013-05-11 20:21:00,
2013-05-11 16:26:00,62.6,61.5,29.07,SSE,157,3.0,9.0,96,0.12,,,0.23,Rainwise IP-100,2013-05-11 20:26:00,
2013-05-11 16:31:00,62.6,61.5,29.07,SSW,202,1.0,7.0,96,0.06,,,0.23,Rainwise IP-100,2013-05-11 20:31:00,
2013-05-11 16:36:00,62.5,61.5,29.07,SW,225,2.0,9.0,96,0.00,,,0.23,Rainwise IP-100,2013-05-11 20:36:00,
2013-05-11 16:41:00,62.5,61.5,29.07,East,90,0.0,7.0,96,0.00,,,0.23,Rainwise IP-100,2013-05-11 20:41:00,
2013-05-11 16:47:00,62.5,61.5,29.07,SW,225,1.0,9.0,96,0.06,,,0.24,Rainwise IP-100,2013-05-11 20:47:00,
2013-05-11 16:52:00,62.6,61.5,29.07,South,180,0.0,6.0,96,0.06,,,0.25,Rainwise IP-100,2013-05-11 20:52:00,
2013-05-11 16:57:00,62.5,61.5,29.07,South,180,5.0,5.0,96,0.06,,,0.25,Rainwise IP-100,2013-05-11 20:57:00,
2013-05-11 17:02:00,62.3,61.5,29.07,WSW,247,0.0,8.0,96,0.00,,,0.25,Rainwise IP-100,2013-05-11 21:02:00,
2013-05-11 17:07:00,62.2,61.0,29.07,SE,135,7.0,7.0,96,0.06,,,0.26,Rainwise IP-100,2013-05-11 21:07:00,
2013-05-11 17:12:00,62.3,61.0,29.07,SSE,157,4.0,8.0,95,0.06,,,0.26,Rainwise IP-100,2013-05-11 21:12:00,
2013-05-11 17:17:00,62.1,60.5,29.07,SW,225,2.0,4.0,95,0.00,,,0.26,Rainwise IP-100,2013-05-11 21:17:00,
2013-05-11 17:22:00,61.9,60.5,29.07,ESE,112,4.0,6.0,95,0.00,,,0.26,Rainwise IP-100,2013-05-11 21:22:00,
2013-05-11 17:28:00,61.8,60.5,29.07,SE,135,0.0,6.0,95,0.00,,,0.26,Rainwise IP-100,2013-05-11 21:28:00,
2013-05-11 17:33:00,61.6,60.0,29.07,NW,315,0.0,5.0,95,0.00,,,0.26,Rainwise IP-100,2013-05-11 21:33:00,
2013-05-11 17:38:00,61.4,60.5,29.07,WSW,247,0.0,4.0,96,0.00,,,0.26,Rainwise IP-100,2013-05-11 21:38:00,
2013-05-11 17:43:00,61.3,60.5,29.07,East,90,0.0,9.0,96,0.00,,,0.26,Rainwise IP-100,2013-05-11 21:43:00,
2013-05-11 17:48:00,61.1,60.0,29.07,East,90,4.0,9.0,96,0.00,,,0.26,Rainwise IP-100,2013-05-11 21:48:00,
2013-05-11 17:53:00,61.1,60.0,29.06,SW,225,3.0,9.0,97,0.06,,,0.27,Rainwise IP-100,2013-05-11 21:53:00,
2013-05-11 17:58:00,60.9,60.0,29.07,South,180,4.0,6.0,97,0.06,,,0.27,Rainwise IP-100,2013-05-11 21:58:00,
2013-05-11 18:03:00,60.9,60.0,29.07,ESE,112,0.0,7.0,97,0.00,,,0.28,Rainwise IP-100,2013-05-11 22:03:00,
2013-05-11 18:08:00,60.9,60.0,29.06,East,90,0.0,6.0,97,0.06,,,0.28,Rainwise IP-100,2013-05-11 22:08:00,
2013-05-11 18:14:00,60.9,60.0,29.07,WSW,247,0.0,5.0,97,0.06,,,0.28,Rainwise IP-100,2013-05-11 22:14:00,
2013-05-11 18:19:00,60.9,60.0,29.07,SSW,202,1.0,4.0,97,0.00,,,0.28,Rainwise IP-100,2013-05-11 22:19:00,
2013-05-11 18:24:00,60.9,60.0,29.07,SSW,202,0.0,8.0,97,0.00,,,0.28,Rainwise IP-100,2013-05-11 22:24:00,
2013-05-11 18:29:00,60.9,60.0,29.07,SSE,157,1.0,6.0,97,0.00,,,0.28,Rainwise IP-100,2013-05-11 22:29:00,
2013-05-11 18:34:00,61.0,60.0,29.08,SW,225,4.0,4.0,97,0.00,,,0.28,Rainwise IP-100,2013-05-11 22:34:00,
2013-05-11 18:39:00,61.2,60.0,29.08,SSE,157,7.0,9.0,97,0.00,,,0.28,Rainwise IP-100,2013-05-11 22:39:00,
2013-05-11 18:44:00,61.2,60.0,29.07,ESE,112,2.0,10.0,97,0.00,,,0.28,Rainwise IP-100,2013-05-11 22:44:00,
2013-05-11 18:50:00,61.3,60.5,29.07,NE,45,2.0,4.0,97,0.00,,,0.28,Rainwise IP-100,2013-05-11 22:50:00,
2013-05-11 18:55:00,61.3,60.5,29.07,SSW,202,0.0,7.0,97,0.00,,,0.28,Rainwise IP-100,2013-05-11 22:55:00,
2013-05-11 19:00:00,61.6,60.5,29.07,SW,225,0.0,7.0,97,0.00,,,0.28,Rainwise IP-100,2013-05-11 23:00:00,
2013-05-11 19:05:00,61.5,60.5,29.08,SW,225,3.0,7.0,97,0.00,,,0.28,Rainwise IP-100,2013-05-11 23:05:00,
2013-05-11 19:10:00,61.4,60.5,29.08,SW,225,2.0,6.0,97,0.00,,,0.28,Rainwise IP-100,2013-05-11 23:10:00,
2013-05-11 19:15:00,61.4,60.5,29.08,SW,225,1.0,6.0,97,0.00,,,0.28,Rainwise IP-100,2013-05-11 23:15:00,
2013-05-11 19:20:00,61.3,60.5,29.08,NE,45,0.0,7.0,97,0.00,,,0.28,Rainwise IP-100,2013-05-11 23:20:00,
2013-05-11 19:25:00,61.2,60.5,29.08,SW,225,0.0,9.0,98,0.00,,,0.28,Rainwise IP-100,2013-05-11 23:25:00,
2013-05-11 19:31:00,61.1,60.5,29.08,SSW,202,1.0,7.0,98,0.00,,,0.28,Rainwise IP-100,2013-05-11 23:31:00,
2013-05-11 19:36:00,61.1,60.5,29.08,WSW,247,9.0,9.0,98,0.00,,,0.28,Rainwise IP-100,2013-05-11 23:36:00,
2013-05-11 19:41:00,60.9,60.0,29.08,SW,225,2.0,10.0,97,0.00,,,0.28,Rainwise IP-100,2013-05-11 23:41:00,
2013-05-11 19:46:00,60.8,60.0,29.09,SSW,202,0.0,8.0,97,0.00,,,0.28,Rainwise IP-100,2013-05-11 23:46:00,
2013-05-11 19:51:00,60.6,59.5,29.09,SW,225,0.0,5.0,97,0.00,,,0.28,Rainwise IP-100,2013-05-11 23:51:00,
2013-05-11 19:56:00,60.6,60.0,29.08,SW,225,1.0,10.0,99,0.00,,,0.28,Rainwise IP-100,2013-05-11 23:56:00,
2013-05-11 20:01:00,60.4,60.0,29.09,SSE,157,1.0,5.0,98,0.00,,,0.28,Rainwise IP-100,2013-05-12 00:01:00,
2013-05-11 20:07:00,60.3,60.0,29.08,SE,135,1.0,7.0,98,0.00,,,0.28,Rainwise IP-100,2013-05-12 00:07:00,
2013-05-11 20:12:00,60.1,59.5,29.08,ENE,67,3.0,5.0,98,0.00,,,0.28,Rainwise IP-100,2013-05-12 00:12:00,
2013-05-11 20:17:00,59.9,59.5,29.08,East,90,3.0,5.0,99,0.00,,,0.28,Rainwise IP-100,2013-05-12 00:17:00,
2013-05-11 20:22:00,59.7,59.0,29.08,ENE,67,0.0,4.0,99,0.00,,,0.28,Rainwise IP-100,2013-05-12 00:22:00,
2013-05-11 20:27:00,59.4,59.0,29.08,ENE,67,0.0,1.0,98,0.00,,,0.28,Rainwise IP-100,2013-05-12 00:27:00,
2013-05-11 20:32:00,59.2,58.0,29.08,East,90,0.0,0.0,98,0.00,,,0.28,Rainwise IP-100,2013-05-12 00:32:00,
2013-05-11 20:37:00,59.4,59.0,29.07,ESE,112,0.0,4.0,98,0.00,,,0.28,Rainwise IP-100,2013-05-12 00:37:00,
2013-05-11 20:42:00,59.4,59.0,29.07,SE,135,0.0,3.0,98,0.00,,,0.28,Rainwise IP-100,2013-05-12 00:42:00,
2013-05-11 20:48:00,59.4,59.0,29.07,SW,225,0.0,3.0,98,0.00,,,0.28,Rainwise IP-100,2013-05-12 00:48:00,
2013-05-11 20:53:00,59.4,59.0,29.06,ESE,112,0.0,3.0,98,0.00,,,0.28,Rainwise IP-100,2013-05-12 00:53:00,
2013-05-11 20:58:00,59.4,59.0,29.07,ESE,112,0.0,2.0,99,0.00,,,0.28,Rainwise IP-100,2013-05-12 00:58:00,
2013-05-11 21:03:00,59.4,59.0,29.07,ESE,112,0.0,0.0,99,0.00,,,0.28,Rainwise IP-100,2013-05-12 01:03:00,
2013-05-11 21:08:00,59.6,59.0,29.06,NNW,337,2.0,0.0,99,0.00,,,0.28,Rainwise IP-100,2013-05-12 01:08:00,
2013-05-11 21:13:00,59.6,59.0,29.06,NNW,337,1.0,3.0,99,0.00,,,0.28,Rainwise IP-100,2013-05-12 01:13:00,
2013-05-11 21:18:00,59.5,59.0,29.06,NNW,337,0.0,4.0,99,0.00,,,0.28,Rainwise IP-100,2013-05-12 01:18:00,
2013-05-11 21:24:00,59.4,59.0,29.07,NNW,337,0.0,0.0,99,0.00,,,0.28,Rainwise IP-100,2013-05-12 01:24:00,
2013-05-11 21:29:00,59.4,59.0,29.07,NNW,337,0.0,0.0,99,0.00,,,0.28,Rainwise IP-100,2013-05-12 01:29:00,
2013-05-11 21:34:00,59.3,59.0,29.07,NNW,337,0.0,1.0,99,0.00,,,0.28,Rainwise IP-100,2013-05-12 01:34:00,
2013-05-11 21:39:00,59.2,59.0,29.07,ESE,112,0.0,2.0,99,0.00,,,0.28,Rainwise IP-100,2013-05-12 01:39:00,
2013-05-11 21:44:00,59.3,59.0,29.07,ESE,112,0.0,0.0,99,0.00,,,0.28,Rainwise IP-100,2013-05-12 01:44:00,
2013-05-11 21:49:00,59.3,59.0,29.07,ESE,112,0.0,0.0,99,0.00,,,0.28,Rainwise IP-100,2013-05-12 01:49:00,
2013-05-11 21:54:00,59.3,59.0,29.07,ESE,112,2.0,0.0,99,0.00,,,0.28,Rainwise IP-100,2013-05-12 01:54:00,
2013-05-11 21:59:00,59.5,59.0,29.07,ESE,112,0.0,3.0,99,0.00,,,0.28,Rainwise IP-100,2013-05-12 01:59:00,
2013-05-11 22:05:00,59.5,59.0,29.07,ESE,112,0.0,0.0,99,0.00,,,0.28,Rainwise IP-100,2013-05-12 02:05:00,
2013-05-11 22:10:00,59.6,59.0,29.07,SW,225,0.0,0.0,99,0.00,,,0.28,Rainwise IP-100,2013-05-12 02:10:00,
2013-05-11 22:15:00,59.5,59.0,29.07,SW,225,0.0,0.0,99,0.00,,,0.28,Rainwise IP-100,2013-05-12 02:15:00,
2013-05-11 22:20:00,59.5,59.0,29.07,SW,225,0.0,3.0,99,0.00,,,0.28,Rainwise IP-100,2013-05-12 02:20:00,
2013-05-11 22:25:00,59.4,59.0,29.06,SW,225,0.0,0.0,99,0.00,,,0.28,Rainwise IP-100,2013-05-12 02:25:00,
2013-05-11 22:30:00,59.5,59.0,29.07,SE,135,0.0,3.0,99,0.00,,,0.28,Rainwise IP-100,2013-05-12 02:30:00,
2013-05-11 22:35:00,59.5,59.0,29.07,SSW,202,0.0,0.0,99,0.00,,,0.28,Rainwise IP-100,2013-05-12 02:35:00,
2013-05-11 22:41:00,59.3,59.0,29.07,SSW,202,1.0,2.0,99,0.00,,,0.28,Rainwise IP-100,2013-05-12 02:41:00,
2013-05-11 22:46:00,59.2,59.0,29.07,SSW,202,0.0,3.0,99,0.00,,,0.28,Rainwise IP-100,2013-05-12 02:46:00,
2013-05-11 22:51:00,58.9,59.0,29.07,SSW,202,0.0,2.0,99,0.00,,,0.28,Rainwise IP-100,2013-05-12 02:51:00,
2013-05-11 22:56:00,58.9,59.0,29.07,SSW,202,0.0,0.0,99,0.00,,,0.28,Rainwise IP-100,2013-05-12 02:56:00,
2013-05-11 23:01:00,58.9,59.0,29.07,West,270,1.0,3.0,100,0.00,,,0.28,Rainwise IP-100,2013-05-12 03:01:00,
2013-05-11 23:06:00,59.2,59.0,29.06,SW,225,0.0,3.0,100,0.00,,,0.28,Rainwise IP-100,2013-05-12 03:06:00,
2013-05-11 23:11:00,59.3,59.5,29.06,SW,225,0.0,1.0,100,0.00,,,0.28,Rainwise IP-100,2013-05-12 03:11:00,
2013-05-11 23:16:00,59.4,59.5,29.06,SW,225,4.0,4.0,100,0.00,,,0.28,Rainwise IP-100,2013-05-12 03:16:00,
2013-05-11 23:22:00,59.2,59.0,29.06,West,270,1.0,5.0,100,0.00,,,0.28,Rainwise IP-100,2013-05-12 03:22:00,
2013-05-11 23:27:00,59.1,59.0,29.07,West,270,0.0,2.0,100,0.00,,,0.28,Rainwise IP-100,2013-05-12 03:27:00,
2013-05-11 23:32:00,58.9,59.0,29.07,West,270,0.0,1.0,100,0.00,,,0.28,Rainwise IP-100,2013-05-12 03:32:00,
2013-05-11 23:37:00,59.0,59.0,29.07,West,270,0.0,0.0,100,0.00,,,0.28,Rainwise IP-100,2013-05-12 03:37:00,
2013-05-11 23:42:00,58.9,59.0,29.07,West,270,0.0,0.0,100,0.00,,,0.28,Rainwise IP-100,2013-05-12 03:42:00,
2013-05-11 23:47:00,58.9,59.0,29.07,NNW,337,1.0,4.0,100,0.00,,,0.28,Rainwise IP-100,2013-05-12 03:47:00,
2013-05-11 23:52:00,58.8,59.0,29.07,NNW,337,3.0,5.0,100,0.00,,,0.28,Rainwise IP-100,2013-05-12 03:52:00,
2013-05-11 23:58:00,58.5,59.0,29.06,NNW,337,0.0,3.0,100,0.00,,,0.28,Rainwise IP-100,2013-05-12 03:58:00,